Location: Garden of he Gods Recreation Area
(37.6010°N, 88.3780°W)
Time: 02:28:15
(UTC-05:00)

Hubble Space Telescope - Visible Passes

Search period start: 21 March 2019 00:00
Search period end: 31 March 2019 00:00
Orbit: 537 x 540 km, 28.5° (Epoch: 20 March)

Date Brightness Start Highest point End Pass type
(mag) Time Alt. Az. Time Alt. Az. Time Alt. Az.
24 Mar 3.0 20:00:40 10° S 20:02:03 11° SSE 20:03:26 10° SE visible
25 Mar 2.9 19:49:22 10° SSW 19:51:27 14° SSE 19:53:31 10° SE visible
25 Mar 3.4 21:28:46 10° SW 21:29:10 12° SW 21:29:10 12° SW visible
26 Mar 2.8 19:38:21 10° SSW 19:40:51 16° SSE 19:43:20 10° SE visible
26 Mar 3.0 21:18:10 10° SW 21:19:26 16° SW 21:19:26 16° SW visible
27 Mar 2.7 21:07:35 10° SW 21:09:40 20° SSW 21:09:40 20° SSW visible
28 Mar 2.4 20:57:02 10° SW 20:59:51 22° SSW 20:59:51 22° SSW visible
29 Mar 2.4 20:46:31 10° WSW 20:49:43 22° S 20:50:00 21° S visible
30 Mar 2.5 20:36:03 10° WSW 20:39:08 20° S 20:40:09 19° SSE visible
